Location: Ar Ranvel
(48.3000°N, 4.8833°W)
Time: 01:51:21
(UTC+00:00)

MetOp-B - Visible Passes

Search period start: 23 October 2021 00:00
Search period end: 02 November 2021 00:00
Orbit: 819 x 821 km, 98.7° (Epoch: 22 October)

Date Brightness Start Highest point End Pass type
(mag) Time Alt. Az. Time Alt. Az. Time Alt. Az.
23 Oct 6.1 20:11:27 17° NNE 20:11:27 17° NNE 20:12:49 10° N visible
23 Oct 6.9 21:52:49 12° NNW 21:52:49 12° NNW 21:53:16 10° NNW visible
24 Oct 6.2 19:50:36 14° NNE 19:50:36 14° NNE 19:51:42 10° N visible
24 Oct 6.7 21:31:58 14° NNW 21:31:58 14° NNW 21:32:41 10° NNW visible
25 Oct 6.3 19:29:45 12° NNE 19:29:45 12° NNE 19:30:23 10° NNE visible
25 Oct 6.6 21:11:07 15° NNW 21:11:07 15° NNW 21:11:59 10° NNW visible
26 Oct 6.5 20:50:16 15° N 20:50:16 15° N 20:51:12 10° N visible
27 Oct 6.4 20:29:25 15° N 20:29:25 15° N 20:30:19 10° N visible
28 Oct 6.4 20:08:33 14° N 20:08:33 14° N 20:09:20 10° N visible
29 Oct 6.4 19:47:41 12° NNE 19:47:41 12° NNE 19:48:11 10° N visible
29 Oct 6.9 21:29:04 11° NNW 21:29:04 11° NNW 21:29:15 10° NNW visible
30 Oct 6.8 21:08:12 12° NNW 21:08:12 12° NNW 21:08:33 10° NNW visible
31 Oct 6.7 20:47:20 12° N 20:47:20 12° N 20:47:44 10° N visible
01 Nov 6.6 20:26:28 12° N 20:26:28 12° N 20:26:50 10° N visible
